This is the latest recevied weather packets stored in our database for station/object IZ6UQU-13. If no packets are shown the sender has not sent any weather packets the latest 10 day(s).
| Time | Temp. | Humidity | Pressure | Rain* | Wind** | Luminosity | Snow |
|---|---|---|---|---|---|---|---|
| 1777708807 | 11.67° C | 54% | 963.9 hPa | 0 mm | - | - | - |
| 1777708506 | 11.67° C | 57% | 963.9 hPa | 0 mm | - | - | - |
| 1777708206 | 11.11° C | 57% | 964 hPa | 0 mm | - | - | - |
| 1777707906 | 11.11° C | 56% | 964.1 hPa | 0 mm | - | - | - |
| 1777707606 | 11.11° C | 56% | 964.1 hPa | 0 mm | - | - | - |
| 1777707306 | 11.11° C | 58% | 964.1 hPa | 0 mm | - | - | - |
| 1777707006 | 11.11° C | 57% | 964 hPa | 0 mm | - | - | - |
| 1777706706 | 11.11° C | 57% | 964.1 hPa | 0 mm | - | - | - |
| 1777706406 | 11.11° C | 55% | 964.1 hPa | 0 mm | - | - | - |
| 1777706106 | 10.56° C | 58% | 964.1 hPa | 0 mm | - | - | - |
| 1777705806 | 9.44° C | 59% | 964.1 hPa | 0 mm | - | - | - |
| 1777705506 | 9.44° C | 58% | 964.1 hPa | 0 mm | - | - | - |
| 1777705206 | 8.89° C | 62% | 964.1 hPa | 0 mm | - | - | - |
| 1777704906 | 8.89° C | 61% | 964 hPa | 0 mm | - | - | - |
| 1777704606 | 8.89° C | 62% | 964.1 hPa | 0 mm | - | - | - |
| 1777704306 | 8.89° C | 62% | 964.1 hPa | 0 mm | - | - | - |
| 1777704006 | 7.78° C | 64% | 964 hPa | 0 mm | - | - | - |
| 1777703706 | 7.78° C | 64% | 964 hPa | 0 mm | - | - | - |
| 1777703406 | 7.22° C | 65% | 964 hPa | 0 mm | - | - | - |
| 1777703106 | 7.22° C | 66% | 963.9 hPa | 0 mm | - | - | - |
| 1777702806 | 7.22° C | 67% | 964 hPa | 0 mm | - | - | - |
| 1777702506 | 7.22° C | 67% | 964 hPa | 0 mm | - | - | - |
| 1777702206 | 6.67° C | 69% | 964 hPa | 0 mm | - | - | - |
| 1777701906 | 6.67° C | 69% | 963.9 hPa | 0 mm | - | - | - |
| 1777701606 | 6.67° C | 68% | 963.9 hPa | 0 mm | - | - | - |
* Rain latest hour (hover to see other rain measurements)
** Current wind speed in m/s (hover to see current wind gust speed)